Weather History for Rochester, MN

Change the Weather History Date:

Sunday, February 17, 2013

  Actual Average Record
Temperature  
Mean Temperature 21 °F 21 °F  
Max Temperature 31 °F 29 °F 63 °F (1981)
Min Temperature 10 °F 13 °F -22 °F (1910)
Degree Days  
Heating Degree Days 44 44  
Month to date heating degree days 768 791  
Since 1 July heating degree days 4951 5399  
Cooling Degree Days 0 0  
Month to date cooling degree days 0 0  
Year to date cooling degree days 0 0  
Moisture  
Dew Point 14 °F    
Average Humidity 72    
Maximum Humidity 80    
Minimum Humidity 63    
Precipitation  
Precipitation 0.00 in 0.03 in 0.45 in (1911)
Month to date precipitation 0.77 0.46  
Year to date precipitation 1.55 1.32  
Snow  
Snow 0.00 in 0.30 in 2.00 in (1939)
Month to date snowfall 7.4 5.3  
Since 1 July snowfall 23.8 36.7  
Snow Depth 2.00 in    
Sea Level Pressure  
Sea Level Pressure 29.97 in    
Wind  
Wind Speed 17 mph (SSE)    
Max Wind Speed 28 mph    
Max Gust Speed 36 mph    
Visibility 10 miles    
Events      
T = Trace of Precipitation, MM = Missing Value Source: NWS Daily Summary

Daily Weather History Graph

Daily Weather History Graph

Search for Another Location

Airport:

Trip Planner

Search our weather history database for the weather conditions in past years. The results will help you decide how hot, cold, wet, or windy it might be!

Date:

Astronomy

Feb. 17, 2013 Rise Set
Actual Time 7:05 AM CST 5:42 PM CST
Civil Twilight 6:36 AM CST 6:12 PM CST
Nautical Twilight 6:02 AM CST 6:46 PM CST
Astronomical Twilight 5:29 AM CST 7:19 PM CST
Moon 10:42 AM CST (2/17) 12:54 AM CST (2/17)
Length of Visible Light 11h 36m
Length of Day
10h 37m
Waxing Crescent, 49% of the Moon is Illuminated
Feb 17
Waxing Crescent
Feb 17
First Quarter
Feb 25
Full
Mar 4
Last Quarter
Mar 11
New

Hourly Weather History & Observations

Time (CST) Temp. Windchill Dew Point Humidity Pressure Visibility Wind Dir Wind Speed Gust Speed Precip Events Conditions
12:54 AM 10.0 °F -2.9 °F 3.0 °F 73% 30.16 in 10.0 mi SSE 9.2 mph - N/A   Partly Cloudy
1:54 AM 10.9 °F -1.8 °F 3.9 °F 73% 30.17 in 10.0 mi SSE 9.2 mph - N/A   Overcast
2:54 AM 10.9 °F -1.8 °F 3.9 °F 73% 30.16 in 10.0 mi SE 9.2 mph - N/A   Mostly Cloudy
3:54 AM 12.9 °F -0.9 °F 6.1 °F 74% 30.14 in 10.0 mi SSE 11.5 mph - N/A   Overcast
4:54 AM 12.9 °F -0.2 °F 6.1 °F 74% 30.13 in 10.0 mi SSE 10.4 mph - N/A   Mostly Cloudy
5:54 AM 12.9 °F -0.2 °F 6.1 °F 74% 30.12 in 10.0 mi SSE 10.4 mph - N/A   Partly Cloudy
6:54 AM 12.0 °F -1.3 °F 6.1 °F 77% 30.11 in 10.0 mi SSE 10.4 mph - N/A   Clear
7:54 AM 14.0 °F -1.4 °F 8.1 °F 77% 30.08 in 10.0 mi SSE 15.0 mph - N/A   Clear
8:54 AM 17.1 °F 3.0 °F 10.9 °F 77% 30.09 in 10.0 mi South 13.8 mph - N/A   Clear
9:54 AM 19.9 °F 5.7 °F 12.9 °F 74% 30.09 in 10.0 mi SSE 16.1 mph - N/A   Clear
10:54 AM 23.0 °F 9.6 °F 15.1 °F 72% 30.06 in 10.0 mi SSE 16.1 mph - N/A   Clear
11:54 AM 26.1 °F 12.0 °F 16.0 °F 66% 30.04 in 10.0 mi SSE 20.7 mph 25.3 mph N/A   Clear
12:54 PM 28.0 °F 15.3 °F 18.0 °F 66% 30.00 in 10.0 mi South 18.4 mph 26.5 mph N/A   Clear
1:54 PM 30.0 °F 17.9 °F 19.0 °F 64% 29.96 in 10.0 mi SSE 18.4 mph 28.8 mph N/A   Clear
2:54 PM 30.9 °F 17.2 °F 19.0 °F 61% 29.92 in 10.0 mi SSE 25.3 mph 29.9 mph N/A   Clear
3:54 PM 30.9 °F 18.7 °F 19.0 °F 61% 29.89 in 10.0 mi SSE 19.6 mph 27.6 mph N/A   Clear
4:54 PM 30.0 °F 16.9 °F 19.0 °F 64% 29.87 in 10.0 mi SSE 21.9 mph 28.8 mph N/A   Clear
5:54 PM 28.9 °F 16.1 °F 19.0 °F 67% 29.85 in 10.0 mi SSE 19.6 mph - N/A   Clear
6:54 PM 28.0 °F 13.9 °F 19.0 °F 69% 29.82 in 10.0 mi SSE 23.0 mph 29.9 mph N/A   Clear
7:54 PM 28.0 °F 13.9 °F 19.0 °F 69% 29.80 in 10.0 mi SSE 23.0 mph - N/A   Clear
8:54 PM 28.9 °F 14.5 °F 19.0 °F 67% 29.78 in 10.0 mi SSE 25.3 mph 34.5 mph N/A   Clear
9:54 PM 30.0 °F 16.3 °F 19.0 °F 64% 29.75 in 10.0 mi SSE 24.2 mph 33.4 mph N/A   Clear
10:54 PM 30.0 °F 16.0 °F 19.9 °F 66% 29.73 in 10.0 mi SSE 25.3 mph 32.2 mph N/A   Clear
11:54 PM 30.0 °F 16.6 °F 19.9 °F 66% 29.70 in 10.0 mi SSE 23.0 mph 31.1 mph N/A   Clear